Weather History for Livingston, MT

Change the Weather History Date:

Saturday, January 19, 2013

  Actual Average Record
Temperature  
Mean Temperature 38 °F 27 °F  
Max Temperature 43 °F 37 °F 59 °F (1986)
Min Temperature 34 °F 18 °F -27 °F (1962)
Degree Days  
Heating Degree Days 26 38  
Month to date heating degree days 726  
Since 1 July heating degree days 3891  
Moisture  
Dew Point 9 °F    
Average Humidity 29    
Maximum Humidity 33    
Minimum Humidity 26    
Precipitation  
Precipitation 0.00 in 0.01 in 0.24 in (2011)
Month to date precipitation 0.30  
Year to date precipitation 0.30  
Sea Level Pressure  
Sea Level Pressure 30.19 in    
Wind  
Wind Speed 29 mph (SW)    
Max Wind Speed 36 mph    
Max Gust Speed 48 mph    
Visibility 10 miles    
Events      
T = Trace of Precipitation, MM = Missing Value Source: NWS Daily Summary

Daily Weather History Graph

Daily Weather History Graph

Search for Another Location

Airport:

Trip Planner

Search our weather history database for the weather conditions in past years. The results will help you decide how hot, cold, wet, or windy it might be!

Date:

Astronomy

Jan. 19, 2013 Rise Set
Actual Time 7:55 AM MST 5:09 PM MST
Civil Twilight 7:22 AM MST 5:42 PM MST
Nautical Twilight 6:46 AM MST 6:19 PM MST
Astronomical Twilight 6:10 AM MST 6:54 PM MST
Moon 11:41 AM MST 1:29 AM MST
Length of Visible Light 10h 19m
Length of Day
9h 14m
First Quarter, 58% of the Moon is Illuminated
Jan 19
First Quarter
Jan 26
Full
Feb 3
Last Quarter
Feb 10
New
Feb 17
First Quarter

Hourly Weather History & Observations

Time (MST) Temp. Windchill Dew Point Humidity Pressure Visibility Wind Dir Wind Speed Gust Speed Precip Events Conditions
12:53 AM 39.9 °F 29.7 °F 9.0 °F 28% 30.12 in 10.0 mi WSW 23.0 mph 29.9 mph N/A   Clear
1:53 AM 39.9 °F 28.6 °F 8.1 °F 27% 30.14 in 10.0 mi SW 28.8 mph 42.6 mph N/A   Clear
2:53 AM 37.9 °F 24.7 °F 8.1 °F 29% 30.15 in 10.0 mi SW 35.7 mph 44.9 mph N/A   Clear
3:53 AM 37.9 °F 25.3 °F 8.1 °F 29% 30.16 in 10.0 mi SW 32.2 mph 41.4 mph N/A   Clear
4:53 AM 35.1 °F 21.2 °F 8.1 °F 33% 30.18 in 10.0 mi SW 33.4 mph 47.2 mph N/A   Clear
5:53 AM 36.0 °F 22.8 °F 8.1 °F 31% 30.19 in 10.0 mi SW 31.1 mph 39.1 mph N/A   Clear
6:53 AM 35.1 °F 21.2 °F 7.0 °F 31% 30.18 in 10.0 mi SW 33.4 mph 48.3 mph N/A   Clear
7:53 AM 34.0 °F 20.1 °F 7.0 °F 32% 30.22 in 10.0 mi SW 31.1 mph 42.6 mph N/A   Clear
8:53 AM 34.0 °F 19.5 °F 7.0 °F 32% 30.24 in 10.0 mi SW 34.5 mph 46.0 mph N/A   Clear
9:53 AM 36.0 °F 22.8 °F 8.1 °F 31% 30.26 in 10.0 mi SW 31.1 mph 41.4 mph N/A   Clear
10:53 AM 37.0 °F 23.7 °F 8.1 °F 30% 30.27 in 10.0 mi SW 34.5 mph 42.6 mph N/A   Clear
11:53 AM 39.9 °F 28.2 °F 8.1 °F 27% 30.25 in 10.0 mi SW 31.1 mph 38.0 mph N/A   Clear
12:53 PM 42.1 °F 31.7 °F 9.0 °F 26% 30.22 in 10.0 mi SW 27.6 mph 35.7 mph N/A   Clear
1:53 PM 42.1 °F 32.1 °F 9.0 °F 26% 30.21 in 10.0 mi SW 25.3 mph 34.5 mph N/A   Clear
2:53 PM 41.0 °F 29.3 °F 10.0 °F 28% 30.19 in 10.0 mi SSW 33.4 mph 40.3 mph N/A   Clear
3:53 PM 41.0 °F 30.7 °F 10.0 °F 28% 30.20 in 10.0 mi SW 25.3 mph 38.0 mph N/A   Clear
4:53 PM 41.0 °F 29.8 °F 9.0 °F 27% 30.19 in 10.0 mi SW 29.9 mph 40.3 mph N/A   Clear
5:53 PM 41.0 °F 30.0 °F 10.0 °F 28% 30.17 in 10.0 mi SW 28.8 mph 39.1 mph N/A   Clear
6:17 PM 39.2 °F 30.8 °F 10.4 °F 31% 30.13 in 10.0 mi West 15.0 mph 29.9 mph N/A   Clear
6:53 PM 39.9 °F 31.8 °F 10.0 °F 29% 30.18 in 10.0 mi WSW 15.0 mph 40.3 mph N/A   Clear
7:53 PM 39.0 °F 28.3 °F 10.9 °F 32% 30.18 in 10.0 mi West 24.2 mph 38.0 mph N/A   Partly Cloudy
8:53 PM 39.0 °F 28.0 °F 12.0 °F 33% 30.19 in 10.0 mi WSW 25.3 mph 41.4 mph N/A   Clear
9:53 PM 39.0 °F 27.4 °F 12.0 °F 33% 30.19 in 10.0 mi WSW 28.8 mph 40.3 mph N/A   Clear
10:53 PM 43.0 °F 31.8 °F 10.0 °F 26% 30.17 in 10.0 mi SW 34.5 mph 40.3 mph N/A   Clear
11:53 PM 41.0 °F 29.8 °F 10.0 °F 28% 30.16 in 10.0 mi SW 29.9 mph 38.0 mph N/A   Clear